THY2337 LTBJ-LTFM

Flight info

Callsign THY2337
Flight time 0h 45m
Altitude 28000
Route BERGO N618 DUGLA/N0476F270 Z713 INBET
Aircraft B77W/H-SDE1E2E3FGHIJ2J3J4J5M1RWXY/LB1D1

Departure

Time 2026-05-04 05:10
Airport Adnan Menderes International Airport (LTBJ)

Arrival

Time 2026-05-04 05:55
Airport İstanbul Airport (LTFM)
Time Latitude Longitude Altitude Speed Heading
2026-05-04 04:37 38.28997 27.15159 412 ft 0 kts 257°
2026-05-04 04:37 38.28996 27.15153 410 ft 0 kts 257°
2026-05-04 04:59 38.29000 27.15172 410 ft 4 kts 256°
2026-05-04 04:59 38.29006 27.15201 409 ft 4 kts 244°
2026-05-04 05:00 38.29022 27.15223 421 ft 4 kts 191°
2026-05-04 05:00 38.29047 27.15221 410 ft 4 kts 164°
2026-05-04 05:00 38.29070 27.15213 410 ft 1 kts 167°
2026-05-04 05:06 38.29002 27.15248 414 ft 0 kts 136°
2026-05-04 05:06 38.28997 27.15255 426 ft 3 kts 133°
2026-05-04 05:06 38.28964 27.15298 411 ft 12 kts 140°
2026-05-04 05:07 38.28841 27.15377 413 ft 26 kts 169°
2026-05-04 05:07 38.28697 27.15420 414 ft 21 kts 166°
2026-05-04 05:07 38.28554 27.15463 413 ft 22 kts 166°
2026-05-04 05:09 38.27859 27.15895 413 ft 0 kts 345°
2026-05-04 05:09 38.27861 27.15895 413 ft 5 kts 346°
2026-05-04 05:10 38.28141 27.15815 412 ft 101 kts 347°
2026-05-04 05:10 38.29235 27.15497 822 ft 201 kts 347°
2026-05-04 05:10 38.30640 27.15176 2560 ft 205 kts 353°
2026-05-04 05:10 38.32118 27.14947 3330 ft 222 kts 355°
2026-05-04 05:11 38.33686 27.14742 4293 ft 231 kts 357°
2026-05-04 05:11 38.35322 27.14629 5333 ft 237 kts 358°
2026-05-04 05:11 38.36982 27.14504 6370 ft 249 kts 357°
2026-05-04 05:11 38.38771 27.14351 7239 ft 257 kts 358°
2026-05-04 05:12 38.40512 27.14360 8612 ft 251 kts
2026-05-04 05:12 38.42271 27.14441 9782 ft 254 kts
2026-05-04 05:12 38.44069 27.14507 10647 ft 266 kts
2026-05-04 05:12 38.46025 27.14546 11020 ft 298 kts
2026-05-04 05:13 38.48217 27.14560 11283 ft 332 kts 360°
2026-05-04 05:13 38.50596 27.14546 12038 ft 349 kts 360°
2026-05-04 05:13 38.53064 27.14513 13186 ft 358 kts 359°
2026-05-04 05:13 38.55577 27.14467 14332 ft 365 kts 359°
2026-05-04 05:14 38.58144 27.14408 15421 ft 373 kts 359°
2026-05-04 05:14 38.60771 27.14343 16483 ft 382 kts 359°
2026-05-04 05:14 38.63422 27.14274 17519 ft 390 kts 359°
2026-05-04 05:14 38.66168 27.14201 18524 ft 398 kts 359°
2026-05-04 05:15 38.68970 27.14127 19438 ft 405 kts 359°
2026-05-04 05:15 38.71812 27.14051 20414 ft 410 kts 359°
2026-05-04 05:15 38.74688 27.13974 21389 ft 416 kts 359°
2026-05-04 05:15 38.77610 27.13897 22301 ft 422 kts 359°
2026-05-04 05:16 38.80539 27.13819 23167 ft 428 kts 359°
2026-05-04 05:16 38.83544 27.13739 23965 ft 434 kts 359°
2026-05-04 05:16 38.86591 27.13658 24678 ft 440 kts 360°
2026-05-04 05:16 38.89668 27.13575 25382 ft 445 kts
2026-05-04 05:17 38.92789 27.13491 26070 ft 451 kts
2026-05-04 05:17 38.95947 27.13407 26754 ft 456 kts
2026-05-04 05:17 38.99132 27.13354 27409 ft 460 kts
2026-05-04 05:17 39.02337 27.13624 27995 ft 464 kts
2026-05-04 05:18 39.08767 27.14814 28046 ft 465 kts 11°
2026-05-04 05:18 39.15106 27.16034 28045 ft 463 kts 11°
2026-05-04 05:19 39.21496 27.17218 28047 ft 464 kts 10°
2026-05-04 05:19 39.27853 27.18373 28056 ft 457 kts 10°
2026-05-04 05:20 39.34133 27.19516 28048 ft 458 kts 11°
2026-05-04 05:20 39.40460 27.20672 28065 ft 459 kts 11°
2026-05-04 05:21 39.46800 27.21832 28063 ft 460 kts 11°
2026-05-04 05:21 39.53176 27.22306 28062 ft 465 kts
2026-05-04 05:22 39.59691 27.21816 28064 ft 466 kts 359°
2026-05-04 05:22 39.66129 27.21341 28066 ft 466 kts 360°
2026-05-04 05:23 39.72619 27.20904 28065 ft 466 kts 360°
2026-05-04 05:23 39.79098 27.20480 28068 ft 466 kts 360°
2026-05-04 05:24 39.85592 27.20050 28069 ft 466 kts 360°
2026-05-04 05:24 39.92024 27.19624 28070 ft 465 kts
2026-05-04 05:25 39.98453 27.19868 28066 ft 459 kts 10°
2026-05-04 05:25 40.01582 27.20552 27619 ft 456 kts 14°
2026-05-04 05:25 40.04626 27.21637 26923 ft 450 kts 19°
2026-05-04 05:26 40.07582 27.22900 26197 ft 443 kts 20°
2026-05-04 05:26 40.10496 27.24144 25528 ft 437 kts 19°
2026-05-04 05:26 40.13343 27.25333 25383 ft 420 kts 19°
2026-05-04 05:26 40.16087 27.26465 25195 ft 405 kts 19°
2026-05-04 05:27 40.18717 27.27497 25007 ft 393 kts 15°
2026-05-04 05:28 40.37036 27.28755 22140 ft 364 kts
2026-05-04 05:29 40.39556 27.28928 21749 ft 361 kts
2026-05-04 05:29 40.42053 27.29099 21367 ft 358 kts
2026-05-04 05:29 40.44536 27.29270 20992 ft 356 kts
2026-05-04 05:29 40.46999 27.29439 20625 ft 354 kts
2026-05-04 05:31 40.63844 27.30597 18021 ft 340 kts
2026-05-04 05:31 40.66200 27.30759 17618 ft 337 kts
2026-05-04 05:32 40.68529 27.30920 17257 ft 333 kts
2026-05-04 05:32 40.70818 27.31077 16903 ft 327 kts
2026-05-04 05:32 40.73066 27.31237 16554 ft 321 kts
2026-05-04 05:33 40.77205 27.32806 15919 ft 308 kts 21°
2026-05-04 05:33 40.79180 27.33826 15611 ft 303 kts 20°
2026-05-04 05:33 40.81144 27.34825 15261 ft 300 kts 20°
2026-05-04 05:33 40.83041 27.35777 14916 ft 284 kts 20°
2026-05-04 05:34 40.84889 27.36695 14650 ft 284 kts 20°
2026-05-04 05:34 40.86751 27.37612 14344 ft 285 kts 19°
2026-05-04 05:34 40.88587 27.38515 14049 ft 284 kts 19°
2026-05-04 05:34 40.90395 27.39506 13658 ft 279 kts 30°
2026-05-04 05:35 40.91730 27.41384 13217 ft 286 kts 58°
2026-05-04 05:35 40.92421 27.43853 12912 ft 288 kts 72°
2026-05-04 05:35 40.92718 27.46453 12569 ft 289 kts 79°
2026-05-04 05:35 40.92877 27.49127 12223 ft 288 kts 81°
2026-05-04 05:36 40.93003 27.51775 11854 ft 287 kts 81°
2026-05-04 05:36 40.93126 27.54412 11500 ft 286 kts 81°
2026-05-04 05:36 40.93253 27.57031 11173 ft 285 kts 81°
2026-05-04 05:36 40.93380 27.59575 11077 ft 276 kts 81°
2026-05-04 05:37 40.93512 27.62108 11037 ft 279 kts 81°
2026-05-04 05:37 40.93653 27.64690 11039 ft 284 kts 81°
2026-05-04 05:37 40.93796 27.67313 11035 ft 286 kts 81°
2026-05-04 05:38 40.94082 27.72541 11016 ft 284 kts 81°
2026-05-04 05:38 40.94224 27.75140 11013 ft 283 kts 81°
2026-05-04 05:38 40.94366 27.77729 11019 ft 282 kts 81°
2026-05-04 05:38 40.94508 27.80315 11021 ft 281 kts 81°
2026-05-04 05:39 40.94649 27.82898 11023 ft 281 kts 81°
2026-05-04 05:39 40.94884 27.87198 11023 ft 282 kts 81°
2026-05-04 05:39 40.95071 27.90641 11022 ft 283 kts 81°
2026-05-04 05:40 40.95351 27.95849 11023 ft 284 kts 81°
2026-05-04 05:40 40.95446 27.97618 11022 ft 285 kts 81°
2026-05-04 05:40 40.95584 28.00198 10937 ft 287 kts 81°
2026-05-04 05:41 40.95725 28.02844 10700 ft 288 kts 81°
2026-05-04 05:41 40.95864 28.05479 10472 ft 286 kts 81°
2026-05-04 05:41 40.96000 28.08091 10239 ft 282 kts 81°
2026-05-04 05:41 40.96133 28.10664 10010 ft 277 kts 81°
2026-05-04 05:42 40.96263 28.13158 9759 ft 272 kts 81°
2026-05-04 05:42 40.96391 28.15631 9510 ft 267 kts 81°
2026-05-04 05:42 40.96517 28.18064 9304 ft 263 kts 81°
2026-05-04 05:42 40.96642 28.20472 9075 ft 262 kts 81°
2026-05-04 05:43 40.96766 28.22868 8866 ft 260 kts 81°
2026-05-04 05:43 40.96888 28.25250 8656 ft 258 kts 81°
2026-05-04 05:43 40.97009 28.27614 8451 ft 257 kts 81°
2026-05-04 05:45 40.97160 28.43516 7006 ft 235 kts 91°
2026-05-04 05:45 40.96932 28.45648 6813 ft 232 kts 91°
2026-05-04 05:47 40.96045 28.60167 5480 ft 222 kts 83°
2026-05-04 05:47 40.96048 28.62207 5311 ft 222 kts 83°
2026-05-04 05:47 40.96046 28.64225 5116 ft 222 kts 83°
2026-05-04 05:48 40.96051 28.66258 5009 ft 217 kts 79°
2026-05-04 05:48 40.96518 28.68083 4941 ft 208 kts 49°
2026-05-04 05:48 40.97567 28.69376 4925 ft 207 kts 31°
2026-05-04 05:48 40.98818 28.70335 4917 ft 207 kts 27°
2026-05-04 05:49 41.00077 28.71245 4928 ft 206 kts 27°
2026-05-04 05:49 41.01333 28.72155 4918 ft 204 kts 27°
2026-05-04 05:49 41.02578 28.72898 4901 ft 192 kts 12°
2026-05-04 05:49 41.03915 28.73084 4675 ft 196 kts
2026-05-04 05:51 41.13130 28.73055 2963 ft 179 kts
2026-05-04 05:51 41.14368 28.73030 2731 ft 174 kts
2026-05-04 05:52 41.15536 28.73006 2479 ft 161 kts
2026-05-04 05:52 41.16623 28.72981 2208 ft 148 kts
2026-05-04 05:52 41.17601 28.72959 2034 ft 135 kts
2026-05-04 05:52 41.18535 28.72943 1896 ft 137 kts 359°
2026-05-04 05:53 41.19484 28.72924 1682 ft 133 kts 359°
2026-05-04 05:54 41.25366 28.72785 565 ft 120 kts 358°
2026-05-04 05:55 41.26176 28.72778 376 ft 115 kts 356°
2026-05-04 05:55 41.26937 28.72764 311 ft 100 kts 356°
2026-05-04 05:55 41.27474 28.72751 297 ft 60 kts 360°
2026-05-04 05:55 41.27776 28.72744 286 ft 27 kts 359°
2026-05-04 05:56 41.27960 28.72766 280 ft 27 kts 11°
2026-05-04 05:56 41.28093 28.72849 280 ft 14 kts 32°
2026-05-04 05:56 41.28141 28.72937 280 ft 0 kts 90°
2026-05-04 05:57 41.28139 28.72947 280 ft 2 kts 107°
2026-05-04 05:57 41.28126 28.72964 280 ft 3 kts 145°
2026-05-04 05:57 41.28065 28.72967 282 ft 15 kts 181°
2026-05-04 05:57 41.27956 28.72969 286 ft 17 kts 179°
2026-05-04 05:58 41.27828 28.72970 295 ft 20 kts 179°
2026-05-04 05:58 41.27684 28.72975 301 ft 21 kts 178°
2026-05-04 05:58 41.27539 28.72977 305 ft 21 kts 179°
2026-05-04 05:58 41.27393 28.72982 306 ft 21 kts 178°
2026-05-04 05:59 41.27247 28.72981 310 ft 21 kts 180°
2026-05-04 05:59 41.27104 28.72986 313 ft 21 kts 180°
2026-05-04 05:59 41.26957 28.72988 313 ft 21 kts 178°
2026-05-04 05:59 41.26866 28.73090 313 ft 17 kts 92°
2026-05-04 06:00 41.26867 28.73240 317 ft 16 kts 89°
2026-05-04 06:00 41.26869 28.73391 318 ft 16 kts 90°
2026-05-04 06:00 41.26870 28.73542 318 ft 16 kts 88°
2026-05-04 06:00 41.26873 28.73693 318 ft 16 kts 89°
2026-05-04 06:01 41.26891 28.73838 318 ft 16 kts 47°
2026-05-04 06:01 41.26960 28.73946 317 ft 16 kts 83°
2026-05-04 06:03 41.26710 28.74661 318 ft 6 kts 97°
2026-05-04 06:03 41.26710 28.74688 318 ft 1 kts 89°
2026-05-04 06:05 41.26711 28.74718 318 ft 0 kts 89°